Dewpoint
50 53 54 54 54 54 54 52 45 57 56 45 47 44 43 42 40 40 40 42 38 36 37 35 31 31 37 39 39 32 35 34 33 30 35 36 29 29 31 35 30 31 36 34
50 52 54 54 54 54 54 49 49 56 50 39 42 45 43 42 40 40 39 39 39 39 38 37 38 38 41 41 40 37 37 33 35 35 35 32 32 32 32 32 34 33 37 32
51 51 53 53 53 54 54 50 42 49 48 46 41 43 43 41 41 40 39 38 40 41 40 40 39 41 41 41 40 44 44 36 33 34 32 33 33 34 33 33 39 34 32 30
50 51 53 53 53 53 54 50 46 47 41 42 45 44 43 41 40 41 39 39 37 36 37 37 38 40 41 40 41 41 41 36 35 35 34 33 34 33 33 31 31 34 32 31
49 50 51 53 53 53 52 46 45 48 47 45 43 44 43 41 40 40 39 38 38 37 35 34 35 39 40 39 41 40 39 39 37 38 34 32 32 32 33 33 32 32 31 32
49 50 50 52 52 53 50 48 49 48 44 45 44 44 43 42 42 42 40 40 40 38 33 34 40 41 41 41 40 41 40 40 37 35 35 33 33 34 32 31 31 32 32 33
49 49 49 51 52 53 53 52 52 46 42 46 45 44 43 42 42 42 41 42 42 43 41 45 43 41 40 41 41 41 40 38 39 38 35 33 29 32 31 32 32 32 31 30
48 49 49 48 52 52 53 52 52 46 42 45 44 44 44 44 45 43 45 45 45 50 44 40 38 39 38 38 38 39 39 38 40 36 32 27 27 30 31 31 30 31 29 29
48 48 49 48 49 52 53 51 55 52 44 43 45 45 44 44 44 44 45 48 49 47 44 41 36 34 33 33 37 40 39 42 40 39 31 25 29 31 31 30 28 30 31 32
47 48 49 48 47 52 52 50 54 50 45 48 48 45 44 46 45 43 44 45 46 48 45 41 36 33 32 32 34 36 39 41 40 37 39 34 30 30 32 29 32 32 31 31
47 46 48 48 47 48 52 46 49 50 45 46 48 51 46 46 46 43 45 43 44 45 43 40 38 35 32 31 32 34 35 36 37 37 40 34 35 32 33 36 38 35 34 33
47 46 47 48 47 48 51 46 50 50 46 43 46 46 47 46 46 46 46 43 43 42 41 41 39 36 35 34 32 34 36 36 37 36 36 38 37 36 37 37 37 34 34 34
46 46 46 47 47 48 51 48 50 47 42 42 44 43 43 45 47 50 46 46 44 42 45 41 41 37 35 36 33 34 35 36 37 36 36 37 36 35 37 37 37 36 35 34
46 46 46 47 47 48 49 48 51 49 45 36 37 44 42 44 46 49 49 48 49 48 46 43 43 39 37 36 35 34 35 36 37 38 36 35 36 37 37 36 34 32 34 35
46 46 46 46 48 47 50 50 50 49 44 34 37 43 44 45 45 45 48 47 48 44 43 43 40 36 39 40 39 36 34 35 41 38 37 38 37 35 34 33 34 35 33 32
46 46 46 46 47 47 48 42 48 49 44 41 33 40 42 46 46 45 44 45 43 41 40 42 41 45 41 40 37 35 33 34 35 35 36 36 37 36 36 35 33 32 33 33
45 46 46 45 47 46 45 41 46 48 47 40 34 35 39 42 44 44 45 45 44 42 45 44 43 41 43 41 36 31 32 33 36 36 36 36 36 35 35 33 32 34 33 34
45 45 46 46 46 47 45 48 47 48 44 40 34 33 37 40 42 41 43 44 43 42 42 41 40 41 42 37 33 33 32 32 34 35 35 34 34 33 32 32 32 32 31 31
45 44 45 44 43 41 41 44 47 48 44 37 37 34 33 39 39 40 41 41 41 38 39 36 36 36 35 33 31 29 28 30 29 29 30 30 30 28 28 28 28 28 29 33
45 43 37 32 40 45 46 40 39 40 40 38 35 35 35 37 38 37 38 39 37 34 33 36 33 30 30 30 28 28 29 28 28 30 29 29 29 29 30 29 30 30 30 34
40 33 33 38 45 39 34 32 32 32 33 37 34 35 37 37 36 35 34 35 35 30 34 33 30 29 35 30 29 27 27 28 28 29 30 29 29 30 31 31 32 33 32 32
38 39 40 39 34 32 32 32 32 35 33 32 33 35 36 36 35 35 34 30 32 26 33 32 28 28 28 28 26 27 29 29 28 27 26 27 28 30 31 32 32 33 34 39
41 36 32 32 32 28 28 27 31 33 34 35 36 36 36 36 35 33 31 28 30 31 31 26 26 28 25 27 29 29 28 30 28 27 28 29 29 30 33 32 33 34 34 36
35 32 29 31 29 31 31 30 31 33 36 36 35 32 32 32 32 32 28 27 29 27 23 23 32 27 25 27 29 27 27 28 29 28 28 28 32 33 37 41 40 38 38 36
33 33 30 30 32 33 34 33 33 35 36 33 32 31 30 30 32 28 27 27 25 22 19 28 32 28 28 29 29 28 28 34 30 30 31 40 42 37 40 42 41 40 34 34
34 33 30 31 32 35 34 34 36 36 33 32 30 28 27 25 25 24 26 21 17 22 27 29 27 26 26 29 30 30 30 30 30 30 30 31 37 38 39 40 39 34 35 33
33 32 32 33 33 34 37 36 35 35 31 33 29 25 21 25 22 19 22 22 28 31 33 30 26 26 28 29 30 36 32 30 29 29 32 35 38 39 38 37 38 37 34 34
Lifted_Index
3 2 2 3 4 3 3 2 3 4 4 3 3 4 4 3 3 3 2 1 0 -0 -1 -1 -1 -0 0 1 0 0 -0 -1 -1 -0 -0 0 0 0 0 -0 -0 0 0 -0
3 2 2 3 3 3 3 3 3 4 3 3 2 3 3 3 2 3 2 1 0 -0 -1 -1 -1 -0 0 1 0 0 -0 -1 -1 -1 -0 -0 -0 -0 -0 -0 -0 0 0 -0
3 2 2 2 3 3 3 3 3 3 4 3 3 3 3 2 2 3 2 2 1 -0 -1 -1 -1 -1 -0 0 0 -0 -0 -1 -1 -1 -0 -0 -0 -1 -0 0 0 0 0 0
3 3 2 2 2 2 2 2 3 3 4 4 3 3 2 2 2 2 2 2 1 -0 -0 -1 -1 -1 -1 -0 -0 -0 -1 -1 -1 -0 -0 -0 -0 -0 0 1 0 0 0 0
4 4 3 2 1 1 0 1 3 3 4 3 3 3 2 2 2 2 2 1 1 1 0 0 -0 -1 -1 -1 -0 -1 -1 -1 -1 -0 0 0 0 1 1 1 1 1 1 1
4 4 3 2 1 0 0 1 3 3 3 2 2 2 2 2 1 1 1 1 1 1 1 1 1 0 -0 -0 -0 -0 -1 -1 -0 -0 0 1 1 1 1 1 1 1 2 2
5 5 4 2 1 1 1 2 3 3 2 2 2 2 2 1 1 1 1 1 1 2 2 2 1 1 1 1 1 0 -0 -0 -0 0 1 1 2 2 2 2 2 2 3 3
5 5 4 4 2 1 1 2 2 2 2 2 2 2 1 1 1 1 1 1 1 2 2 2 2 2 2 1 1 1 1 0 1 1 1 2 2 2 2 2 3 3 4 4
5 5 5 5 3 2 2 2 2 2 2 2 2 1 1 1 1 1 2 2 2 2 2 2 2 2 2 2 2 2 1 1 1 1 2 2 2 2 3 3 3 3 4 4
4 5 5 5 4 3 2 2 2 2 2 2 2 2 1 1 1 1 2 2 2 2 2 2 2 2 2 2 2 2 1 1 1 1 2 2 2 3 3 3 3 3 4 4
5 5 5 5 4 3 2 2 2 3 3 3 3 2 2 1 1 1 2 2 2 2 2 2 2 2 2 2 2 2 2 2 1 1 2 2 2 3 3 2 3 3 4 4
5 6 6 6 5 4 3 2 2 3 3 4 3 3 2 1 1 1 2 2 2 2 2 2 2 2 2 2 2 2 2 2 2 1 2 2 2 3 3 2 3 3 4 4
5 6 6 6 5 4 3 2 2 3 3 3 3 3 2 2 2 2 2 2 2 2 1 1 2 2 2 2 2 2 2 2 2 1 2 2 2 3 3 3 3 3 3 4
4 5 6 6 5 4 3 2 2 2 2 2 2 3 3 3 3 2 2 2 1 1 1 1 1 2 2 2 2 2 2 2 2 2 2 2 2 3 3 3 3 4 4 4
4 4 5 5 5 5 3 2 1 2 2 2 2 3 3 3 3 3 2 2 1 1 1 1 2 2 2 2 2 2 2 2 2 2 2 2 3 3 3 3 4 4 4 4
4 5 5 6 6 5 3 2 1 2 2 1 2 3 4 4 3 3 2 2 2 2 2 2 2 2 2 3 3 3 3 3 3 3 3 3 3 3 3 4 4 4 4 4
5 6 6 7 7 6 4 2 2 2 2 2 2 2 3 3 3 3 3 3 3 3 3 3 3 3 3 3 3 3 3 3 3 3 3 4 4 4 4 4 4 4 4 4
5 6 7 7 7 6 4 3 3 3 3 2 1 2 3 3 3 3 3 3 4 4 4 4 4 4 4 4 4 4 4 4 4 4 4 4 4 5 5 5 4 4 4 4
4 6 7 7 6 6 4 4 3 3 3 2 2 2 3 3 4 3 4 4 4 4 4 4 4 4 4 5 5 5 5 5 5 5 5 5 5 6 5 5 5 4 4 4
4 5 6 6 6 5 5 4 4 4 4 3 3 3 3 4 4 4 4 4 5 5 5 5 5 5 5 5 5 6 6 6 6 6 6 6 6 6 5 5 4 4 4 4
4 5 5 5 5 4 4 3 3 4 4 4 4 3 3 4 4 4 4 5 5 5 5 5 6 6 5 6 6 6 7 7 6 6 6 6 5 5 5 4 4 4 4 4
3 4 4 5 4 3 3 3 3 3 3 3 4 4 4 4 4 4 4 5 5 5 6 6 5 6 6 6 6 6 6 6 6 6 6 5 5 4 4 4 4 4 4 4
3 3 4 4 3 2 2 2 3 3 3 3 4 4 5 5 5 5 5 5 5 5 5 5 5 5 6 6 6 5 5 5 5 5 5 4 4 4 4 4 4 4 4 3
3 3 3 2 2 2 2 3 3 3 3 3 4 4 4 5 5 5 5 5 5 5 5 4 5 5 5 5 5 4 4 4 4 4 4 4 4 4 4 4 4 4 3 3
2 2 2 2 2 2 2 3 3 3 3 3 3 4 4 4 5 5 5 5 5 4 4 4 4 4 4 4 4 4 4 4 4 4 4 4 4 4 4 4 4 3 3 2
2 2 2 2 2 2 3 3 3 3 3 3 3 3 4 4 4 4 4 4 4 4 4 4 4 4 4 3 3 3 3 3 3 3 3 3 4 4 3 3 3 3 2 1
2 2 2 2 2 2 3 3 3 3 2 2 2 3 3 4 4 4 4 4 4 4 3 3 4 4 3 3 3 3 3 3 3 3 3 3 3 3 3 2 2 2 1 1